Regional Weather Roundup
Issued by NWS Bismarck, ND

Home | Current Version | Previous Version | Text Only | Print | Product List | Glossary On
Versions: 1 2 3 4 5 6 7 8 9 10 11 12 13 14 15 16 17 18 19 20 21 22 23 24 25 26 27 28 29 30 31 32 33 34 35 36 37 38 39 40 41 42 43 44 45 46 47 48 49 50
000
ASUS43 KBIS 291610
RWRBIS

NWR BROADCAST TEXT
NATIONAL WEATHER SERVICE BISMARCK ND
1100 AM CDT FRI MAY 29 2015

NOTE: "FAIR" INDICATES FEW OR NO CLOUDS BELOW 12,000 FEET WITH NO
SIGNIFICANT WEATHER AND/OR OBSTRUCTIONS TO VISIBILITY.


CITY           SKY/WX    TMP DP  RH WIND       PRES   REMARKS
WILLISTON      CLOUDY    47  33  58 N9G20     30.33R
MINOT          CLOUDY    46  33  60 NW17      30.27R
MINOT AFB      CLOUDY    45  40  82 N14G21    30.27R
BISMARCK       CLOUDY    51  35  54 N18G25    30.22R
DICKINSON      CLOUDY    45  33  63 N16       30.26R
GARRISON         N/A     47  35  63 N12G20    30.26R
HETTINGER ARPT CLOUDY    46  36  68 N18G25    30.26R
JAMESTOWN      CLOUDY    50  40  68 N28G35    30.15R
BEACH          PTSUNNY   45  32  61 N13       30.31R
CARRINGTON     CLOUDY    46  39  76 N22       30.21R
CROSBY         CLOUDY    45  32  61 NE10      30.34R
HARVEY         CLOUDY    46  36  66 NE17      30.23R
HAZEN          CLOUDY    46  34  61 N17       30.27R
LINTON         CLOUDY    48  43  81 N24G35    30.18S
MANDAN         CLOUDY    48  36  61 N23       30.23R
OAKES            N/A     48  46  93 N22G28    30.11R
STANLEY        CLOUDY    45  36  70 N13G18    30.30S
WATFORD CITY   CLOUDY    45  34  65 N13G18    30.29S
$$

CITY           SKY/WX    TMP DP  RH WIND       PRES   REMARKS
GRAND FORKS    CLOUDY    45  37  73 N26G33    30.15R
GRAND FORKS AF CLOUDY    47  36  65 N29G35    30.15S
DEVILS LAKE    CLOUDY    46  30  53 N23G31    30.20S
FARGO          CLOUDY    47  41  80 N30       30.10R
CANDO          CLOUDY    45  36  70 N18G26    30.23R
GRAFTON        CLOUDY    43  36  75 N24G31    30.19R
LANGDON        CLOUDY    45  36  70 N23G32    30.20R
ROLLA          CLOUDY    41  36  81 N21G28    30.24R
WALHALLA         N/A     46  41  81 MISG      30.22R
$$

CITY           SKY/WX    TMP DP  RH WIND       PRES   REMARKS
ABERDEEN       LGT RAIN  52  48  86 N17G33    30.09R
MOBRIDGE       CLOUDY    51  45  79 N20G30    30.14R
BUFFALO          N/A     48  39  71 N17       30.19R
RAPID CITY     CLOUDY    47  45  93 N24G31    30.21R
GLASGOW        MOSUNNY   48  33  56 NE9       30.35S
SIDNEY         PTSUNNY   48  30  49 N8        30.33S
WOLF POINT     MOSUNNY   48  33  56 N9        30.36S
GLENDIVE       MOSUNNY   46  32  57 NW12      30.33F
MILES CITY     MOSUNNY   49  31  49 N7        30.32F
BAKER          PTSUNNY   47  34  60 N10       30.30S
$$

CITY           SKY/WX    TMP DP  RH WIND       PRES   REMARKS
BILLINGS       CLOUDY    47  41  80 NE7       30.33S
GREAT FALLS    CLOUDY    48  44  86 CALM      30.27F
REGINA         MOSUNNY   46  27  46 N9G17     30.37R
ESTEVAN        CLOUDY    45  32  61 N13G20    30.33R
$$




USA.gov is the U.S. government's official web portal to all federal, state and local government web resources and services.